GFSMA_sfc_rhum_240.txt.gz
RH
91 93 95 98 98 99 98 98 98 95 95 90 85 82 79 77 75 76 90 90 91 91 87 81 79 79 84 89 90 90 90 90 90 91 91 91 91 92 92 92 93 94 94
85 80 89 91 96 97 97 94 93 92 91 91 87 83 79 78 74 74 83 88 92 92 93 90 86 84 82 87 90 90 90 90 90 91 92 93 92 92 93 93 93 94 94
87 77 84 86 86 86 92 95 96 95 96 90 86 84 80 76 75 70 76 85 91 96 94 94 93 91 89 88 90 91 91 91 91 91 92 93 93 93 94 94 94 94 94
82 86 75 84 83 82 83 85 86 91 90 91 85 84 78 80 75 74 73 77 86 81 91 94 94 94 94 93 92 93 92 92 92 92 92 93 94 94 94 94 94 94 94
79 79 76 76 85 80 80 78 84 79 80 85 81 85 83 84 80 65 72 73 77 81 82 87 93 93 94 94 93 93 93 93 94 93 92 93 93 94 95 95 96 96 97
78 82 79 83 81 78 77 80 76 82 82 70 64 67 81 84 83 83 72 67 72 72 75 80 88 87 93 92 92 92 91 91 92 93 94 94 95 95 96 96 96 97 97
76 76 76 85 80 76 76 76 78 87 80 89 86 89 87 83 82 79 82 77 74 71 79 73 74 80 80 92 92 90 88 89 86 84 88 95 97 98 97 96 94 95 95
73 72 70 77 76 74 83 83 80 92 77 90 85 91 88 80 80 76 83 77 71 68 70 71 76 77 81 90 89 91 90 89 88 84 85 97 98 96 94 94 94 95 94
72 72 69 69 75 73 74 77 77 77 71 95 83 80 94 90 88 84 83 76 73 84 73 76 75 78 88 94 94 93 93 94 92 92 95 96 95 94 94 92 93 90 90
75 75 69 70 72 73 70 73 72 71 73 74 95 75 84 84 82 83 90 93 90 84 85 90 88 86 87 94 95 97 100 100 99 96 95 94 93 92 91 90 84 85 85
72 73 76 74 72 74 71 69 73 80 73 66 76 94 80 84 92 90 75 86 91 95 94 93 95 94 92 95 99 100 100 100 100 98 97 95 92 91 84 83 83 82 82
78 75 75 75 74 72 72 74 73 74 72 74 66 73 76 79 75 87 92 76 86 85 92 96 96 97 98 100 99 100 100 100 100 99 96 96 92 88 84 83 82 82 82
75 76 77 78 77 76 74 73 77 75 75 72 74 72 74 67 65 75 78 77 93 96 95 97 98 98 99 100 100 100 100 100 100 99 97 94 90 90 89 85 85 84 84
71 70 76 74 76 75 78 79 78 78 73 78 70 73 68 72 78 75 75 90 95 97 98 93 98 99 99 100 100 100 99 100 100 99 96 95 92 90 89 88 88 87 87
69 73 74 77 74 77 78 79 82 80 79 77 79 74 76 70 77 81 84 84 84 88 95 96 97 98 99 100 100 99 99 99 99 98 96 95 93 92 91 90 91 92 92
77 74 76 76 75 74 78 83 83 80 84 84 80 84 81 79 84 92 91 86 89 84 90 95 99 98 99 100 100 99 98 98 98 97 96 96 96 94 95 96 96 94 92
79 73 75 75 76 75 77 81 82 83 88 86 88 86 88 84 86 94 92 89 90 90 90 97 98 99 99 99 99 99 98 97 97 97 97 97 97 96 96 94 94 94 94
85 79 76 76 76 77 77 82 84 83 88 92 87 92 88 91 92 88 94 94 94 95 92 91 99 100 99 99 99 99 98 94 96 97 96 93 95 96 96 95 94 92 92
91 87 78 79 79 81 83 82 83 85 85 87 88 89 90 89 92 93 93 92 93 95 95 99 100 99 99 99 99 99 99 99 92 96 94 92 95 95 93 91 93 97 96
90 92 90 84 83 84 86 86 86 86 88 88 88 89 88 90 90 91 92 94 94 98 99 99 99 99 99 99 99 99 100 99 96 86 92 93 93 90 95 87 96 97 98
85 86 89 89 84 86 84 89 90 90 90 91 90 90 90 91 96 94 92 94 97 98 98 99 100 100 100 100 99 99 100 100 100 100 100 98 98 97 90 93 95 97 98
90 90 92 92 89 91 99 100 97 92 92 92 93 92 91 98 96 100 100 100 98 97 98 98 99 99 99 99 99 98 100 100 100 100 99 100 96 97 91 93 95 98 98
93 93 93 94 92 91 100 100 100 91 92 93 92 92 94 93 99 98 100 100 100 100 99 94 98 97 98 98 98 99 99 98 97 99 97 100 100 100 99 92 91 96 96
91 95 94 93 94 92 100 100 100 98 92 92 92 91 92 98 98 98 99 99 100 100 100 98 92 94 91 94 93 94 95 99 100 100 97 100 100 100 100 100 94 95 96
88 92 94 95 95 94 100 100 100 99 98 94 93 96 95 97 100 100 99 100 100 100 100 100 99 99 99 98 95 96 100 99 100 100 100 100 100 100 100 100 100 97 96
88 94 95 96 99 99 100 100 100 100 100 100 100 100 100 100 100 100 98 100 100 100 100 100 100 100 98 98 95 90 96 98 100 100 100 100 100 100 100 100 100 100 100

GFSMA_sfc_rhum_243.txt.gz
RH
98 99 99 99 99 100 99 98 98 98 97 95 93 89 85 84 82 79 87 93 90 88 87 81 80 80 83 88 89 89 90 90 90 90 91 92 92 92 92 93 93 93 94
96 98 99 99 99 99 99 98 98 98 97 96 92 89 84 83 82 81 82 90 92 89 90 90 87 85 84 86 89 90 89 90 90 90 91 93 93 92 92 92 93 93 93
97 90 98 98 98 99 98 98 98 97 98 93 95 92 90 85 82 80 80 86 90 93 94 93 93 92 90 88 89 91 90 90 91 90 91 93 94 93 93 93 93 93 93
93 95 90 94 95 98 97 98 98 97 97 98 93 93 90 90 84 81 80 82 86 85 92 94 94 93 94 93 92 92 92 91 90 91 91 92 93 94 94 94 94 94 94
86 87 84 87 96 94 92 91 95 92 95 94 93 93 95 91 87 72 77 76 81 84 84 88 93 93 93 93 93 93 92 94 93 92 92 92 93 93 94 94 94 95 96
87 86 85 90 91 91 91 94 92 94 90 81 74 75 90 84 83 87 77 73 76 77 81 82 90 87 93 92 92 92 91 91 91 90 93 94 94 94 95 95 97 97 97
86 88 81 93 87 84 84 87 88 91 89 93 90 93 92 89 85 80 80 82 80 78 83 79 80 84 81 92 91 90 86 86 89 84 83 87 91 96 97 98 97 96 94
80 82 80 84 85 84 88 90 86 91 88 94 89 94 92 85 88 78 80 79 78 79 78 78 76 77 81 90 90 90 89 88 89 89 87 88 91 98 98 96 95 95 93
77 80 78 77 83 81 83 86 85 83 78 97 87 83 94 95 93 84 88 90 87 92 83 83 82 83 88 92 92 92 91 91 91 90 92 93 98 97 95 95 94 92 90
75 78 77 78 81 82 76 82 82 80 83 84 97 84 86 87 80 77 88 92 94 91 92 92 91 89 88 92 92 95 98 97 95 92 92 96 94 95 94 94 92 86 86
73 74 76 76 76 79 77 76 84 85 82 74 84 96 88 88 93 84 74 76 90 94 95 94 94 94 92 93 95 98 100 100 100 99 97 96 96 93 92 86 84 85 84
80 76 77 76 76 76 78 78 78 82 78 76 74 82 77 88 81 94 89 73 74 79 89 95 96 96 96 96 98 100 100 100 100 100 100 97 95 92 88 87 84 83 82
83 80 80 82 79 78 76 78 81 80 81 77 76 74 76 72 66 85 84 76 92 94 94 96 94 96 97 98 100 100 100 100 100 100 99 97 94 91 88 86 84 81 82
75 77 82 78 80 79 81 81 80 81 78 81 75 76 73 76 73 71 72 84 90 96 96 91 96 98 98 99 100 100 100 100 100 100 99 96 94 93 90 87 87 86 86
74 82 86 85 82 82 82 82 84 82 82 82 81 78 78 75 79 78 85 82 79 85 82 93 96 97 99 100 100 99 99 100 100 100 98 96 94 91 91 89 91 91 90
85 87 89 86 84 82 83 85 85 83 85 86 82 85 82 77 82 91 90 87 86 82 87 91 97 98 99 100 100 99 99 99 99 99 98 96 95 93 92 93 94 94 93
78 76 78 79 81 83 83 87 87 85 89 87 88 87 88 84 85 89 94 90 89 90 90 81 96 99 100 99 100 99 99 98 98 97 97 97 96 96 96 94 94 93 91
92 85 81 83 81 83 83 85 86 86 88 91 89 92 89 89 92 88 93 94 92 90 91 92 98 100 99 99 99 99 98 96 97 97 97 96 96 96 96 94 94 94 93
92 94 93 92 88 86 85 85 84 84 86 87 88 90 90 91 93 93 91 93 93 92 92 92 96 99 99 99 100 99 99 99 93 96 95 95 95 94 92 92 99 99 99
85 88 91 94 93 92 91 88 88 89 88 88 88 89 90 91 92 91 93 94 93 96 95 97 99 99 99 99 99 99 100 99 99 91 91 93 94 93 91 93 96 95 98
89 90 91 91 93 95 95 95 95 94 93 92 91 91 91 93 98 95 92 93 94 96 96 97 100 100 100 100 98 99 99 100 100 99 100 99 98 96 93 95 96 97 98
80 90 92 93 94 96 100 100 100 96 95 96 94 92 91 99 99 100 100 100 96 96 94 98 98 98 99 99 99 98 100 100 100 100 99 100 97 98 97 96 96 98 98
84 82 87 92 94 94 100 100 100 99 98 94 94 93 93 92 100 94 100 100 100 100 96 92 95 97 98 98 98 99 99 98 99 100 97 100 100 100 98 92 90 96 96
80 86 86 87 93 94 100 100 100 99 99 98 96 95 94 92 94 97 95 98 98 97 98 96 91 91 90 94 94 95 96 98 100 100 97 100 100 100 100 100 94 95 96
70 80 86 88 90 91 100 100 100 100 100 99 99 97 96 95 99 100 98 99 100 100 100 100 100 100 100 100 98 98 99 99 100 100 100 100 100 100 100 100 100 96 96
72 77 82 88 94 99 100 100 100 100 99 100 100 100 100 100 100 100 98 98 100 100 100 100 100 100 100 99 99 91 98 98 100 100 100 100 100 100 100 100 100 100 100

GFSMA_sfc_rhum_246.txt.gz
RH
94 92 94 90 90 100 98 98 98 97 96 94 93 91 88 85 83 82 82 89 93 88 83 78 82 83 86 88 90 89 89 89 89 90 91 92 91 91 92 92 93 93 93
99 99 100 96 93 99 99 98 97 97 96 94 93 91 88 86 83 83 81 82 94 92 88 86 86 86 86 87 90 91 89 89 89 89 91 92 93 92 92 92 92 92 92
97 97 98 99 99 100 99 99 98 97 97 93 94 93 91 88 86 84 83 83 83 95 92 90 89 91 91 90 90 92 92 91 90 90 90 92 93 93 93 93 93 92 93
95 97 98 98 99 99 99 99 99 98 98 97 95 94 92 91 88 86 84 82 84 80 89 92 92 91 90 92 92 92 92 94 92 90 91 92 92 93 93 94 93 93 93
92 92 89 94 98 98 98 97 98 96 97 97 96 94 94 91 87 76 83 83 83 81 80 87 92 93 92 91 92 91 92 92 95 94 92 92 92 92 93 94 94 94 95
91 91 90 94 95 96 97 98 96 98 94 91 78 77 92 89 89 88 80 76 78 81 82 82 85 83 93 92 91 90 86 89 91 90 93 95 94 94 94 95 95 96 96
92 91 87 94 92 92 91 94 95 96 96 93 89 90 89 83 81 78 81 81 79 78 82 79 79 80 77 91 90 89 84 83 87 89 88 90 95 96 96 96 97 96 97
89 88 84 89 91 88 94 96 93 97 93 94 92 93 91 85 87 84 82 81 81 81 80 81 81 81 80 81 84 90 88 86 87 88 91 93 93 94 95 98 97 95 94
83 86 85 82 88 85 87 92 91 90 88 98 90 84 92 92 91 82 82 90 90 90 87 85 84 82 84 88 90 90 91 92 90 88 89 92 93 95 97 96 95 96 93
77 80 80 83 86 86 83 87 87 86 86 90 98 84 87 84 81 81 83 85 89 87 90 90 90 88 86 88 89 91 94 94 93 91 91 92 95 95 95 95 94 93 90
76 75 79 80 80 83 81 80 89 90 87 81 88 98 92 88 91 83 82 80 87 88 90 90 92 92 89 89 92 93 100 100 100 99 95 96 95 95 95 93 92 88 86
81 78 78 79 80 80 81 82 83 89 84 86 80 86 80 92 91 93 91 80 78 73 87 90 92 92 90 91 92 100 100 100 100 100 100 98 97 95 93 90 88 85 82
82 80 80 82 80 80 80 81 84 86 87 84 84 80 81 76 71 84 85 76 87 88 91 93 91 90 90 94 94 100 100 100 100 100 100 99 96 95 93 90 85 82 81
76 80 82 79 81 80 82 85 84 84 83 87 83 83 78 79 78 75 74 81 89 92 93 80 95 93 91 94 99 100 99 100 100 100 100 99 97 95 93 89 85 84 84
79 89 88 86 86 86 87 86 86 86 85 86 86 84 82 79 81 80 81 81 80 88 83 86 90 93 95 99 99 99 99 100 100 100 100 98 96 93 91 90 88 88 88
81 88 93 91 87 89 86 89 87 86 88 88 86 88 87 81 84 91 89 86 85 82 88 81 93 91 98 100 100 99 100 99 100 100 99 98 95 94 93 92 92 91 90
90 85 85 89 89 88 88 90 90 90 92 90 91 90 90 87 87 90 94 89 90 88 90 82 93 96 99 99 100 99 98 98 98 99 98 98 96 95 95 94 94 92 91
94 93 92 93 92 95 96 94 93 92 92 93 91 93 91 90 92 88 92 94 91 89 91 92 85 99 99 99 99 99 99 98 98 98 98 97 96 96 96 95 94 94 93
98 98 97 92 94 96 94 93 92 90 91 91 90 92 90 91 92 94 92 93 93 92 93 93 92 99 99 99 100 99 98 98 95 97 98 97 96 95 92 92 98 98 99
91 95 97 90 92 94 94 92 91 92 92 92 91 90 90 91 93 93 94 93 92 95 96 97 96 100 99 99 99 99 100 99 99 94 93 94 95 93 92 97 97 97 96
76 90 93 95 95 96 97 96 97 96 96 95 94 93 92 93 99 96 94 94 95 96 97 98 98 100 100 100 98 99 99 99 100 100 99 98 96 94 93 95 95 98 99
64 83 81 90 92 95 100 100 100 99 98 98 98 95 94 100 100 100 100 100 97 96 97 95 97 98 98 97 98 98 99 100 100 99 99 100 97 99 95 96 98 98 98
70 74 85 86 90 91 100 100 100 99 99 98 97 97 97 97 100 96 100 100 100 100 100 92 97 95 94 94 96 98 98 97 98 99 97 100 100 100 96 94 97 97 97
69 74 75 84 87 90 100 100 100 99 99 99 98 97 99 98 98 100 98 98 98 98 98 98 97 91 90 90 90 90 93 95 100 99 97 100 100 100 100 99 94 96 95
66 68 65 69 78 84 100 100 100 99 98 98 98 99 98 96 100 100 100 100 100 100 100 100 100 100 100 100 94 96 100 98 100 100 100 100 100 100 100 100 100 95 96
64 69 67 67 73 87 100 100 100 99 100 100 100 100 100 100 100 100 100 100 100 100 100 100 100 99 100 100 100 93 96 98 100 100 100 100 100 100 100 100 100 100 100

GFSMA_sfc_rhum_252.txt.gz
RH
50 43 43 39 40 37 38 39 37 38 42 43 43 46 44 44 42 36 34 83 88 86 82 80 81 86 89 90 90 90 89 89 88 88 89 90 89 89 89 90 90 91 91
48 45 45 42 40 39 38 38 38 39 40 40 42 45 44 39 38 40 34 38 84 89 88 85 84 84 86 90 92 92 91 90 89 89 89 90 90 90 90 90 90 90 90
52 52 44 44 39 39 46 43 43 42 40 40 44 40 41 42 37 38 37 36 38 87 88 90 88 87 86 88 91 93 93 92 92 91 90 90 91 91 91 91 91 91 91
52 56 44 45 39 40 44 42 42 42 42 40 41 37 35 37 36 38 35 34 32 30 65 86 90 90 88 87 87 90 93 94 94 93 93 92 92 92 92 92 92 92 92
52 52 43 39 44 41 41 39 40 41 37 38 34 35 35 33 34 30 34 35 39 38 32 50 85 88 90 89 87 86 87 90 94 94 94 94 94 94 94 94 93 93 92
54 53 45 44 44 41 40 39 43 39 40 34 28 28 32 31 31 31 30 28 29 33 34 38 38 47 88 88 88 87 84 86 88 91 94 96 96 96 95 95 95 94 94
53 56 48 46 49 46 43 46 45 50 41 42 40 39 36 39 44 38 34 32 32 32 36 37 41 37 36 85 88 87 82 82 85 88 90 94 95 97 97 96 96 96 95
56 53 55 45 47 46 51 51 52 45 41 39 45 39 39 33 32 40 40 38 42 33 33 38 42 43 41 36 48 88 86 85 85 86 88 92 94 95 96 97 97 97 96
54 58 54 54 52 51 45 58 56 58 43 41 50 42 40 37 28 30 46 42 44 42 40 38 41 42 45 44 51 60 90 92 89 87 88 91 92 93 94 94 96 97 97
54 56 60 56 60 51 55 52 51 57 57 45 46 52 55 42 38 36 32 40 43 45 48 41 38 44 43 42 56 70 84 89 91 89 88 88 90 90 92 92 94 97 97
54 52 57 61 63 59 59 61 59 62 51 52 44 46 54 49 53 52 46 36 34 39 41 42 42 42 42 43 43 54 83 90 94 92 90 89 89 90 92 95 96 95 96
47 54 54 62 65 61 62 58 62 61 61 55 49 46 43 44 46 47 50 50 46 41 37 39 46 47 46 45 51 70 85 91 93 93 94 92 92 94 95 95 95 94 93
48 52 58 64 60 63 61 59 62 64 63 61 63 49 44 43 39 38 42 46 47 42 42 42 44 48 45 48 48 72 85 100 100 100 99 98 97 97 96 95 95 94 92
48 55 58 60 61 59 59 62 59 59 63 64 68 61 48 44 43 46 47 49 54 51 46 52 44 46 50 48 52 88 58 100 100 100 100 100 100 99 98 97 96 94 92
51 56 56 60 60 60 60 61 60 63 63 67 69 69 59 53 52 48 51 52 57 64 57 47 46 43 51 49 55 55 58 86 100 100 100 100 100 99 99 98 96 94 92
83 70 64 62 60 62 61 63 62 62 64 64 59 66 65 58 57 56 56 57 59 67 72 53 48 48 50 52 60 61 58 95 100 100 100 100 100 100 99 98 96 94 93
74 78 85 73 69 69 67 66 66 63 69 71 69 64 64 64 63 61 64 66 68 70 80 66 55 55 61 61 62 70 68 72 75 100 100 100 100 100 100 98 96 95 93
69 67 72 88 92 78 82 83 73 69 73 76 75 79 78 76 79 78 73 72 73 75 80 87 72 65 62 61 66 72 83 83 83 98 100 100 100 100 100 98 96 96 96
66 68 68 68 76 96 91 86 83 73 73 72 74 83 82 86 91 88 86 87 84 84 83 88 88 76 70 74 85 88 90 94 94 98 100 100 100 100 99 98 97 96 95
63 63 63 65 66 67 95 96 97 92 84 84 82 82 79 81 83 88 90 90 90 92 89 94 94 92 89 81 88 95 98 97 97 95 97 99 98 99 99 98 98 96 95
62 59 62 59 62 64 70 85 88 96 97 96 94 89 91 92 100 97 91 88 89 94 95 97 96 95 97 100 98 92 97 98 100 99 98 97 97 96 96 98 94 98 98
68 68 63 59 52 42 80 86 92 79 85 96 90 88 84 99 98 100 100 100 100 94 96 95 92 95 92 95 91 94 98 100 100 99 98 99 97 98 96 96 95 98 99
76 76 73 66 57 54 75 82 84 55 66 84 92 87 84 93 100 90 99 100 100 100 100 97 98 92 92 86 90 93 98 98 95 88 98 100 100 100 97 94 98 99 99
82 81 77 73 66 49 76 81 80 51 51 62 72 75 83 82 86 95 96 97 97 97 98 98 97 96 94 92 97 91 92 96 100 100 98 100 100 100 100 97 99 99 99
74 75 72 73 76 73 78 82 79 53 49 47 52 67 76 87 98 100 96 98 98 99 100 100 100 100 100 100 100 99 100 100 100 100 100 100 100 100 100 100 100 99 99
59 64 66 65 74 71 76 82 76 65 61 61 64 64 98 97 100 100 98 96 99 100 100 100 99 98 99 99 100 99 98 98 100 100 100 100 100 100 100 100 100 100 99

GFSMA_sfc_rhum_255.txt.gz
RH
47 40 38 36 37 35 37 38 38 38 41 40 40 42 42 42 41 35 33 84 84 84 81 79 82 87 89 91 91 90 89 89 88 88 89 90 89 89 89 89 90 90 90
45 39 39 36 33 33 33 35 34 34 36 38 42 44 42 39 38 41 35 41 85 86 87 85 84 85 87 89 92 91 90 90 89 89 89 90 91 90 90 90 90 90 90
50 48 40 39 36 36 42 40 43 38 36 38 41 39 40 43 37 38 35 36 39 88 85 87 87 87 87 87 90 93 92 92 92 91 90 90 91 91 91 91 91 91 91
51 51 43 40 37 37 35 39 39 38 39 38 41 36 36 38 39 39 34 35 31 28 64 86 86 87 88 87 87 90 94 93 93 93 92 92 92 92 92 93 92 92 92
48 52 43 41 45 38 38 40 41 42 38 39 35 36 37 33 34 28 34 37 41 37 31 55 84 87 87 87 86 87 87 90 93 93 93 94 94 94 94 94 94 94 93
51 53 46 49 44 39 38 37 46 39 40 36 27 28 35 33 33 33 32 29 31 38 40 42 42 53 87 86 86 85 84 85 87 90 93 94 94 95 95 95 95 95 95
49 56 49 50 50 44 44 48 46 50 41 42 40 38 35 38 41 34 31 30 31 32 36 35 37 34 36 81 82 83 82 82 84 86 89 92 94 97 97 97 96 96 96
52 52 58 50 50 45 53 53 54 47 44 43 46 43 45 39 37 41 41 40 45 35 32 36 38 41 42 38 56 84 85 85 85 86 88 91 93 95 96 97 98 98 97
50 56 54 57 53 51 48 58 58 59 49 45 50 45 41 42 35 31 48 43 49 42 38 38 40 41 46 47 53 64 87 89 88 87 88 90 92 93 94 95 96 97 97
49 52 58 57 61 50 53 53 54 58 60 53 46 43 52 51 49 40 34 44 48 48 53 45 42 43 43 46 58 65 83 89 91 90 89 89 90 91 92 93 94 95 96
48 49 55 61 62 59 58 59 57 62 54 57 50 46 54 54 60 59 56 41 39 42 43 47 46 45 44 46 46 58 74 84 89 90 89 89 89 89 90 90 92 92 95
46 51 52 59 63 62 64 60 63 61 62 58 54 50 45 52 52 52 54 55 51 44 39 41 51 50 50 50 52 69 77 85 87 89 91 91 91 90 90 91 91 94 96
69 57 56 61 58 64 65 64 65 66 63 62 63 54 50 46 42 41 42 44 46 42 44 43 44 46 44 51 51 71 74 82 88 90 92 92 92 91 92 93 94 95 95
73 75 87 63 60 61 64 68 64 62 65 66 68 63 51 47 45 43 43 46 52 50 47 52 44 46 47 50 55 75 59 84 93 99 100 100 99 98 96 98 97 96 96
65 71 75 83 83 61 64 67 65 66 65 67 68 68 61 53 48 45 45 46 52 62 57 51 49 47 46 49 60 58 59 72 99 100 100 100 99 99 100 99 98 97 97
67 70 74 75 84 88 72 68 68 64 67 65 60 66 65 58 55 53 51 51 53 58 64 54 52 53 53 48 60 66 61 79 99 100 100 100 100 100 100 100 99 99 98
72 66 65 69 77 82 86 88 74 71 69 68 66 64 66 64 61 58 60 58 58 59 69 62 57 58 64 65 61 68 69 67 66 100 100 100 100 100 100 100 100 100 98
69 73 64 64 68 74 87 91 91 83 83 79 71 70 67 61 70 67 62 67 68 67 71 81 72 68 71 70 72 78 84 77 70 90 100 100 100 100 100 100 100 100 99
71 70 70 68 64 68 78 86 87 87 90 82 75 73 70 71 73 73 73 76 76 77 82 90 89 81 83 77 77 81 87 86 90 94 100 100 100 100 100 100 100 100 99
74 71 67 70 63 65 72 76 72 81 86 88 89 79 74 74 78 80 84 86 89 87 88 94 94 93 93 86 87 93 96 95 92 90 94 97 100 100 100 100 100 99 98
75 74 73 72 71 66 54 83 84 81 73 80 88 93 97 91 93 88 83 83 89 92 96 97 91 95 97 100 98 94 98 94 98 94 95 97 97 97 97 99 98 99 99
61 73 76 74 77 61 74 84 81 75 71 75 78 77 89 99 100 100 100 100 96 94 92 91 89 97 91 90 91 97 97 100 100 98 98 99 98 98 97 95 98 98 99
60 60 69 70 78 77 87 90 86 70 65 68 68 76 86 83 91 98 100 100 100 100 95 77 90 91 88 90 94 98 98 99 95 91 97 100 100 100 98 97 98 98 98
61 64 65 63 67 64 83 86 94 76 67 60 58 58 69 89 93 98 98 98 98 98 98 97 98 97 98 98 99 99 99 99 100 100 98 100 100 100 100 99 98 98 98
57 58 56 63 65 69 75 84 85 78 75 73 60 59 64 76 96 100 98 95 93 97 100 100 100 100 100 100 100 99 99 100 100 100 100 100 100 100 100 100 100 99 99
56 56 58 64 67 64 70 80 78 78 84 80 76 72 84 97 100 100 97 96 94 99 100 100 96 95 96 96 100 98 98 99 100 100 100 100 100 100 100 100 100 100 99

GFSMA_sfc_rhum_258.txt.gz
RH
72 66 63 63 63 65 66 68 63 63 64 63 62 60 58 59 58 56 63 87 88 85 83 80 82 87 90 92 93 91 90 89 89 89 90 91 91 90 90 90 90 90 91
70 65 67 64 59 58 58 57 60 58 62 61 61 62 61 60 57 58 52 71 85 86 86 84 84 86 88 90 93 93 91 90 90 89 90 91 92 91 91 91 90 90 90
70 69 66 65 64 60 62 60 60 66 64 59 61 64 58 61 58 58 59 57 66 86 87 88 87 86 87 89 91 94 93 92 92 91 90 91 92 92 92 92 92 91 91
65 72 67 68 63 64 65 65 68 65 66 64 66 62 54 57 55 53 51 50 52 44 80 87 87 87 87 87 88 90 93 94 93 92 92 93 93 93 93 93 93 92 92
62 67 64 63 69 61 64 64 63 68 64 66 57 59 63 58 56 42 47 50 54 48 45 67 84 87 87 86 85 86 88 92 94 93 93 93 94 94 94 94 94 94 94
61 66 64 70 65 60 60 59 67 66 64 63 43 40 52 50 50 56 54 46 47 51 52 47 61 74 87 86 86 85 84 86 89 92 93 93 93 94 94 94 95 95 95
65 67 64 65 69 63 63 66 64 71 64 64 62 61 61 64 63 52 56 54 44 42 55 56 56 52 54 83 84 82 80 80 82 86 88 92 94 95 95 95 95 96 96
66 65 67 65 64 63 68 72 73 65 63 60 70 65 66 62 55 51 55 46 43 44 46 50 47 46 47 47 76 82 80 81 82 83 86 90 93 94 96 96 96 95 94
59 64 66 69 69 68 65 67 71 70 66 66 62 69 78 71 66 58 56 50 48 54 50 47 48 57 56 60 68 80 86 87 85 86 88 90 91 93 94 95 96 97 96
67 59 62 67 72 68 66 66 63 67 69 68 75 55 57 66 79 79 67 66 58 59 74 74 64 63 57 70 74 75 80 88 89 89 89 90 91 92 93 94 94 95 96
72 78 82 68 69 69 71 68 69 72 66 67 63 64 62 59 61 74 63 53 63 72 73 72 64 73 62 66 71 78 79 84 87 87 88 89 90 92 93 93 93 93 95
64 73 73 80 88 76 70 73 69 72 70 67 65 62 57 63 63 68 72 66 59 52 60 68 73 66 62 61 69 72 80 84 85 86 88 90 91 91 92 92 91 92 92
69 65 70 84 85 88 88 72 73 72 71 68 70 65 62 54 50 59 65 64 66 60 63 57 56 71 62 66 64 74 75 78 84 85 87 89 91 93 93 92 91 91 92
74 71 66 69 74 86 88 91 81 77 74 73 70 67 63 59 54 48 50 56 58 56 59 68 73 76 76 76 73 78 71 83 84 87 88 90 92 93 94 94 92 93 94
58 67 74 69 72 78 84 92 94 91 81 79 75 73 68 64 60 56 53 50 53 58 53 50 56 57 62 64 68 70 72 85 85 88 94 99 100 100 99 99 97 96 98
68 69 69 73 70 73 80 86 91 89 91 85 80 77 74 68 66 63 58 56 52 53 56 46 54 73 74 66 83 82 80 85 87 90 100 100 100 100 100 100 99 99 100
73 71 70 69 70 70 73 87 88 87 89 92 93 87 78 73 71 68 67 61 57 56 59 51 52 70 80 82 82 88 88 88 90 98 100 100 100 100 100 100 100 100 100
76 77 73 72 70 69 69 72 80 79 84 87 92 93 91 88 83 71 69 69 64 60 61 67 64 75 80 88 89 88 92 92 89 95 100 100 100 100 100 100 100 100 100
69 74 74 78 76 76 72 77 75 76 78 78 79 86 88 91 94 92 83 79 75 70 68 71 72 92 93 93 92 92 92 95 96 98 100 100 100 100 100 100 100 100 100
60 61 66 71 76 76 75 75 76 80 79 73 78 80 77 83 90 92 92 93 86 81 80 82 94 96 96 95 96 97 98 98 98 97 99 99 99 100 100 100 100 100 100
56 56 61 64 68 71 65 84 86 88 84 81 77 77 77 82 89 98 94 94 96 92 85 94 93 98 99 100 99 99 98 98 100 98 98 100 99 99 99 100 99 99 100
58 61 61 63 65 58 76 92 90 87 83 85 83 76 72 84 80 86 100 100 100 98 95 97 98 98 98 98 98 98 98 100 100 100 100 99 100 99 98 98 99 100 99
62 63 63 63 65 66 75 82 82 77 80 84 84 84 81 66 83 92 93 95 95 100 100 98 98 95 94 94 94 97 98 99 97 99 99 100 100 100 98 98 100 100 100
64 65 65 65 66 61 76 79 82 73 72 74 76 79 81 81 84 94 89 86 85 89 97 98 98 97 96 96 98 98 99 99 100 100 99 100 100 100 100 99 100 100 100
65 63 60 66 67 69 74 78 80 72 71 73 69 76 82 84 91 99 97 98 96 95 99 100 100 100 100 100 100 100 100 100 100 100 100 100 100 100 100 100 100 100 99
62 63 65 67 71 70 74 79 80 77 80 78 76 74 82 86 100 100 98 98 98 98 100 98 98 99 99 99 100 99 99 100 100 100 100 100 100 100 100 100 100 100 100

GFSMA_sfc_rhum_261.txt.gz
RH
85 77 82 84 88 88 89 88 87 80 81 77 71 74 68 67 65 67 73 88 90 88 86 83 84 87 89 91 92 92 91 89 88 88 89 90 90 90 90 90 90 90 91
82 82 75 81 79 76 76 72 77 73 75 72 71 67 67 67 64 63 68 80 87 89 88 86 86 87 88 90 92 92 91 91 90 89 89 90 91 91 91 91 91 91 91
77 78 79 76 78 68 73 68 66 75 72 74 69 66 61 62 64 64 64 69 78 88 88 89 89 88 88 89 91 93 92 92 91 90 90 91 91 92 92 92 92 92 92
75 78 81 81 73 77 65 77 66 64 70 74 73 73 66 71 62 61 59 58 55 56 82 87 88 87 88 88 89 91 93 94 93 92 91 92 92 92 92 93 93 93 93
70 70 75 79 75 77 75 75 78 72 67 70 72 69 71 72 66 52 56 54 54 52 50 73 85 86 87 87 86 87 90 92 94 93 93 93 93 93 93 94 94 94 94
68 74 72 73 78 76 78 75 76 78 76 74 54 52 66 58 59 66 57 51 53 54 52 47 55 71 86 85 85 84 84 85 89 92 93 94 94 94 94 94 94 94 94
72 66 68 80 78 77 75 76 71 75 70 81 77 63 66 74 68 56 50 52 53 53 55 52 51 51 54 85 84 84 82 82 83 86 91 94 94 94 94 95 94 94 94
76 78 83 68 66 68 75 83 81 70 72 78 66 81 73 68 57 61 65 59 54 48 47 52 53 55 56 58 72 83 82 82 82 83 86 90 94 96 96 95 95 95 95
74 70 73 85 83 72 68 71 76 82 72 79 71 66 91 81 81 70 60 54 48 49 48 46 48 55 55 57 66 75 82 84 84 84 84 88 90 92 95 96 96 96 94
72 72 70 79 85 89 87 80 74 72 71 72 84 68 58 74 82 86 81 71 59 54 55 59 53 52 51 62 66 67 76 84 86 86 86 88 90 92 93 94 95 96 96
70 70 83 86 85 91 90 91 94 78 73 71 68 68 81 68 62 70 64 52 60 79 66 67 62 65 60 58 63 70 83 82 85 86 87 88 90 92 93 94 95 96 96
67 70 72 80 87 89 91 93 93 94 84 75 70 68 68 68 65 71 71 65 57 47 47 70 71 66 65 64 68 75 83 83 84 84 86 88 89 90 92 94 94 95 95
69 69 71 80 82 82 82 88 94 92 96 94 79 72 69 68 62 58 63 64 63 57 59 58 52 66 62 64 63 75 82 83 82 83 84 86 88 91 93 93 93 93 93
72 66 70 70 73 75 80 87 92 95 95 94 97 92 74 69 66 66 62 61 66 66 64 62 69 58 58 60 65 76 64 83 82 85 85 87 89 91 93 94 94 95 94
68 70 73 73 71 73 76 80 88 90 90 94 93 94 96 88 74 66 64 62 62 68 61 51 60 66 64 60 70 70 66 70 81 80 85 88 90 92 93 94 95 95 95
80 78 78 78 76 76 75 76 81 88 86 90 91 93 91 92 92 93 81 68 64 66 72 56 50 48 46 48 69 78 71 78 87 84 86 89 94 98 100 100 100 99 99
84 80 79 80 78 78 79 82 82 80 81 86 84 84 91 91 93 92 94 91 79 72 74 64 57 50 54 62 53 73 73 78 74 87 88 94 100 100 100 100 100 100 100
79 79 78 76 72 74 82 80 82 82 82 84 82 83 83 82 91 91 94 94 93 92 96 91 66 60 57 60 82 85 93 90 84 96 92 99 100 100 100 100 100 100 100
68 72 65 69 72 75 75 78 79 81 84 84 82 83 81 84 88 92 91 94 95 87 92 93 95 94 86 83 78 87 94 96 96 99 99 100 100 100 100 100 100 100 100
63 62 65 66 69 67 68 73 74 77 80 76 80 82 83 81 85 87 86 85 92 92 92 95 92 89 84 85 89 88 94 98 97 99 100 100 100 100 100 100 100 100 100
61 63 64 64 66 65 57 70 74 76 77 78 80 77 80 84 85 87 85 96 92 92 90 92 94 92 93 90 90 85 97 95 100 99 99 99 99 99 99 100 100 100 100
65 66 66 65 68 58 72 76 79 76 76 79 81 77 77 80 85 86 97 99 99 94 91 97 94 97 94 95 95 99 98 98 98 100 100 99 100 99 98 99 100 100 100
69 66 68 66 62 62 69 76 81 75 75 76 77 78 72 72 86 82 93 94 92 94 100 98 98 98 98 97 98 93 94 95 92 98 99 100 100 99 98 98 100 100 100
70 71 71 68 69 64 77 80 81 74 75 73 66 69 74 77 77 83 93 88 86 89 91 97 97 97 98 98 99 98 98 95 98 100 99 100 100 100 100 100 100 100 100
69 70 68 73 76 73 78 82 83 78 78 77 72 74 77 77 81 84 93 91 89 89 96 99 99 100 100 100 100 99 98 99 100 100 100 100 100 100 100 100 100 100 100
69 70 73 74 75 71 73 81 81 83 87 87 84 82 83 87 89 88 95 95 96 93 99 94 91 94 96 98 100 99 99 99 100 100 100 100 100 100 100 100 100 100 100

GFSMA_sfc_rhum_264.txt.gz
RH
93 91 91 97 98 98 98 98 97 93 94 90 84 82 78 76 73 69 80 87 90 88 87 86 86 86 87 89 90 90 89 88 87 87 87 89 89 90 89 90 90 90 90
91 89 87 91 96 96 92 90 88 87 86 84 82 79 75 73 71 69 72 81 91 91 88 86 87 87 88 88 90 90 90 90 90 89 88 90 90 90 90 90 91 91 91
86 83 87 87 84 88 86 88 84 86 89 84 81 76 74 71 69 68 64 76 79 89 88 88 88 88 89 90 90 92 91 91 91 90 90 90 91 91 91 91 91 91 91
79 81 84 86 83 82 82 83 80 79 79 81 76 76 70 70 64 63 61 59 60 64 78 87 88 87 88 89 89 91 92 92 92 92 91 91 91 92 92 92 92 92 92
77 79 72 76 83 84 85 80 80 77 68 70 71 69 72 72 68 59 61 59 59 58 56 68 87 86 85 85 85 85 87 90 92 93 93 93 92 92 92 92 92 92 92
78 83 81 80 77 76 83 86 85 87 78 71 60 55 66 65 65 70 62 55 56 56 56 54 57 69 84 83 83 83 83 84 88 91 92 93 93 93 93 93 93 93 93
81 82 81 80 80 85 77 74 79 83 74 88 87 68 69 76 74 64 63 62 58 56 57 58 57 55 54 82 82 82 81 82 83 86 89 92 93 94 94 94 94 94 94
77 80 88 85 83 85 90 85 83 79 84 83 76 82 76 65 76 66 62 61 57 56 54 55 56 53 54 55 68 82 80 79 80 82 84 88 92 95 94 94 95 95 94
67 70 78 86 84 83 88 89 89 95 92 74 83 77 85 77 65 68 69 61 59 58 55 52 51 55 54 58 64 74 82 82 79 80 82 86 89 93 95 96 96 95 95
67 67 73 80 88 89 91 92 83 93 96 97 88 79 73 69 75 74 60 79 73 67 61 59 56 53 51 59 64 68 76 84 81 80 80 82 86 89 92 94 95 96 94
69 71 73 84 85 87 87 88 91 95 93 98 97 94 88 80 75 80 80 66 59 64 70 70 65 62 56 54 57 67 79 81 84 80 79 80 84 88 91 92 93 94 95
68 69 70 81 83 85 86 88 89 92 95 94 94 94 95 95 81 80 81 75 71 61 56 56 68 66 67 69 68 71 77 84 84 83 81 82 84 87 90 92 93 94 94
73 74 73 82 83 82 83 84 88 89 93 95 94 94 94 94 95 90 77 72 71 64 62 58 58 57 51 58 69 80 80 85 87 86 84 83 85 87 90 92 93 93 94
80 75 77 78 78 78 81 84 88 91 91 93 92 92 93 91 92 93 96 97 91 74 66 63 57 65 62 56 58 73 71 85 88 87 86 84 85 87 90 91 93 94 94
66 69 81 80 80 79 81 84 86 87 87 89 91 89 88 88 92 92 92 95 98 96 87 67 65 55 64 64 64 62 66 74 85 88 86 83 84 86 89 91 92 94 94
71 74 77 74 78 78 79 84 83 82 83 78 78 85 84 84 85 91 93 91 94 98 97 83 88 86 74 59 67 71 64 79 83 86 88 84 84 87 89 92 92 94 96
74 73 75 72 71 72 77 84 81 78 71 73 80 75 81 79 85 86 89 91 90 91 97 90 92 87 86 78 75 69 77 77 75 88 89 88 86 87 90 94 97 98 100
80 76 70 72 69 68 71 74 78 74 72 78 70 78 80 75 84 85 88 89 89 90 97 97 89 88 90 88 84 93 89 78 72 76 89 91 88 87 96 100 100 100 100
70 73 70 71 70 72 72 74 69 72 75 71 68 80 81 82 87 87 88 85 88 86 95 95 92 89 91 91 91 88 85 84 84 87 94 90 90 93 100 100 100 100 100
67 69 70 70 72 71 69 63 66 75 75 72 74 71 75 78 81 84 85 88 88 92 90 91 88 88 90 87 91 92 92 87 85 85 93 96 95 98 100 100 100 100 100
70 69 69 71 72 65 53 71 77 79 80 78 79 69 72 79 82 84 88 91 93 96 92 91 89 89 90 91 94 95 95 98 94 96 98 95 98 97 99 100 100 100 100
71 72 73 74 73 64 76 83 82 81 80 78 80 77 74 77 76 84 84 82 95 94 96 96 93 94 95 97 95 98 97 98 99 98 100 99 100 100 99 100 100 100 100
76 75 75 75 78 74 82 80 82 78 77 81 80 80 76 68 80 75 77 83 85 88 93 95 95 93 97 95 97 97 96 96 94 90 99 99 100 100 99 100 100 100 100
78 79 75 68 75 68 79 80 82 76 75 78 80 82 84 84 81 83 82 84 85 82 79 71 84 91 89 88 93 96 98 97 96 99 98 100 100 100 100 100 100 100 100
81 72 65 65 72 73 77 81 85 80 80 81 78 82 87 89 86 88 91 96 91 87 84 86 90 89 88 90 94 97 98 99 100 100 100 100 100 100 100 100 100 99 100
82 67 71 70 73 73 76 84 85 84 87 86 85 83 89 92 92 93 97 97 97 97 95 88 88 87 85 83 90 96 98 98 100 100 100 100 100 100 100 100 100 100 100